Project,Study,Ord_Occ,Event_Num,Cast_ID,Date_Time_UTC,Date_Time_PST,Lat_Dec,Lon_Dec,Sta_ID,Line,Sta,Depth,Pressure,PrQ,Temp1,Temp1Q,Temp2,Temp2Q,TempAve,Salt1,Salt1Q,Salt1_Corr,Salt2,Salt2Q,Salt2_Corr,SaltAve_Corr,Ox1,Ox1Q,Ox1_CruiseCorr,Ox1_StaCorr,Ox2,Ox2Q,Ox2_CruiseCorr,Ox2_StaCorr,OxAve_StaCorr,Ox1uM,Ox1uM_CruiseCorr,Ox1uM_StaCorr,Ox2uM,Ox2uM_CruiseCorr,Ox2uM_StaCorr,OxAveuM_StaCorr,FluorV,FluorQ,EstChl_CruiseCorr,EstChl_StaCorr,ISUSV,ISUSQ,EstNO3_CruiseCorr,EstNO3_StaCorr,SigThetaTS1,SigThetaTS1Q,SigThetaTS2,SigThetaTS2Q,BAT,XMiss,TransQ,pH,pHQ,SPAR,SPARQ,PAR,PARQ,PoT1,PoT2,DynHt,SVA,OxSat1,OxSat2,BTL_Depth,BTL_Temp,SaltB,OxB,OxBuM,Chl-a,Phaeo,NO3,NO2,NH4,PO4,SIL
CalCOFI,2007SR,062,64,2007_062u,25-Jul-2020 11:48:13,25-Jul-2020 03:48:13,33.72042,-123.63232,076.7 090.0,076.7,090.0,516.000,520.349,,5.3626,,5.3624,,5.3625,34.1812,,34.1814,34.1830,,34.1846,34.1830,0.5010,,0.5058,0.4935,2.3102,,1.5739,0.6603,0.5769,21.785,22.2533,22.1257,100.464,,30.7540,26.4399,0.0331,,,,-99.0,,-99.0,-99.0,26.9888,,26.9903,,0.6344,85.3348,,7.520,,1.9043E+00,,1.0000E-12,,5.3199,5.3197,1.0160,,7.105,32.764,,,,,,,,,,,,
CalCOFI,2007SR,062,64,2007_062u,25-Jul-2020 11:48:18,25-Jul-2020 03:48:18,33.72042,-123.63232,076.7 090.0,076.7,090.0,515.000,519.339,,5.3654,,5.3653,,5.3654,34.1812,,34.1814,34.1828,,34.1844,34.1829,0.5011,,0.5059,0.4936,2.3072,,1.5668,0.6524,0.5730,21.789,22.2574,22.1298,100.332,,30.4147,26.2723,0.0321,,,,-99.0,,-99.0,-99.0,26.9884,,26.9898,,0.6344,85.3337,,7.520,,1.9043E+00,,1.0000E-12,,5.3228,5.3226,1.0160,,7.106,32.723,515,5.365,34.1820,0.504,21.97,,,41.55,0.00,0.13,3.19,84.96
CalCOFI,2007SR,062,64,2007_062u,25-Jul-2020 11:48:22,25-Jul-2020 03:48:22,33.72042,-123.63232,076.7 090.0,076.7,090.0,514.000,518.330,,5.3656,,5.3653,,5.3655,34.1809,,34.1811,34.1824,,34.1840,34.1826,0.5103,,0.5155,0.5032,2.3040,,1.5591,0.6440,0.5736,22.192,22.6781,22.5504,100.194,,30.0601,26.3053,0.0317,,,,-99.0,,-99.0,-99.0,26.9882,,26.9895,,0.6346,85.3307,,7.520,,1.9043E+00,,1.0000E-12,,5.3230,5.3228,1.0161,,7.238,32.678,,,,,,,,,,,,
CalCOFI,2007SR,062,64,2007_062u,25-Jul-2020 11:48:22,25-Jul-2020 03:48:22,33.72042,-123.63232,076.7 090.0,076.7,090.0,513.000,517.320,,5.3629,,5.3631,,5.3630,34.1798,,34.1800,34.1812,,34.1828,34.1814,0.5081,,0.5132,0.5009,2.2972,,1.5429,0.6261,0.5635,22.097,22.5790,22.4513,99.895,,29.2916,25.8715,0.0323,,,,-99.0,,-99.0,-99.0,26.9876,,26.9887,,0.6342,85.3385,,7.520,,1.9043E+00,,1.0000E-12,,5.3204,5.3207,1.0161,,7.206,32.579,,,,,,,,,,,,
CalCOFI,2007SR,062,64,2007_062u,25-Jul-2020 11:48:23,25-Jul-2020 03:48:23,33.72042,-123.63232,076.7 090.0,076.7,090.0,512.000,516.310,,5.3609,,5.3610,,5.3610,34.1787,,34.1789,34.1803,,34.1819,34.1804,0.5048,,0.5098,0.4975,2.3001,,1.5498,0.6337,0.5656,21.954,22.4297,22.3020,100.023,,29.6206,25.9613,0.0315,,,,-99.0,,-99.0,-99.0,26.9870,,26.9883,,0.6342,85.3384,,7.520,,1.9043E+00,,1.0000E-12,,5.3185,5.3186,1.0161,,7.159,32.619,,,,,,,,,,,,
CalCOFI,2007SR,062,64,2007_062u,25-Jul-2020 11:48:24,25-Jul-2020 03:48:24,33.72042,-123.63232,076.7 090.0,076.7,090.0,511.000,515.301,,5.3668,,5.3671,,5.3670,34.1790,,34.1792,34.1806,,34.1822,34.1807,0.5052,,0.5102,0.4979,2.3087,,1.5704,0.6563,0.5771,21.969,22.4453,22.3177,100.396,,30.5792,26.4485,0.0321,,,,-99.0,,-99.0,-99.0,26.9866,,26.9878,,0.6342,85.3384,,7.520,,1.9043E+00,,1.0000E-12,,5.3245,5.3248,1.0161,,7.165,32.745,,,,,,,,,,,,
CalCOFI,2007SR,062,64,2007_062u,25-Jul-2020 11:48:25,25-Jul-2020 03:48:25,33.72042,-123.63232,076.7 090.0,076.7,090.0,510.000,514.291,,5.3733,,5.3747,,5.3740,34.1792,,34.1794,34.1808,,34.1824,34.1809,0.5070,,0.5121,0.4997,2.2936,,1.5343,0.6166,0.5582,22.048,22.5278,22.4001,99.739,,28.8907,25.6454,0.0319,,,,-99.0,,-99.0,-99.0,26.9859,,26.9870,,0.6342,85.3384,,7.520,,1.9043E+00,,1.0000E-12,,5.3310,5.3325,1.0161,,7.192,32.537,,,,,,,,,,,,
CalCOFI,2007SR,062,64,2007_062u,25-Jul-2020 11:48:27,25-Jul-2020 03:48:27,33.72042,-123.63232,076.7 090.0,076.7,090.0,509.000,513.281,,5.3671,,5.3695,,5.3683,34.1797,,34.1799,34.1807,,34.1823,34.1811,0.5046,,0.5096,0.4972,2.2946,,1.5367,0.6192,0.5582,21.941,22.4161,22.2885,99.785,,29.0089,25.6487,0.0325,,,,-99.0,,-99.0,-99.0,26.9870,,26.9875,,0.6342,85.3384,,7.520,,1.9043E+00,,1.0000E-12,,5.3249,5.3274,1.0161,,7.156,32.548,,,,,,,,,,,,
CalCOFI,2007SR,062,64,2007_062u,25-Jul-2020 11:48:29,25-Jul-2020 03:48:29,33.72042,-123.63232,076.7 090.0,076.7,090.0,508.000,512.272,,5.3780,,5.3779,,5.3780,34.1793,,34.1795,34.1814,,34.1830,34.1813,0.5135,,0.5189,0.5065,2.2892,,1.5238,0.6050,0.5558,22.329,22.8211,22.6934,99.548,,28.3998,25.5466,0.0317,,,,-99.0,,-99.0,-99.0,26.9854,,26.9871,,0.6342,85.3384,,7.520,,1.9043E+00,,1.0000E-12,,5.3359,5.3358,1.0161,,7.285,32.477,,,,,,,,,,,,
CalCOFI,2007SR,062,64,2007_062u,25-Jul-2020 11:48:30,25-Jul-2020 03:48:30,33.72042,-123.63232,076.7 090.0,076.7,090.0,507.000,511.262,,5.3911,,5.3910,,5.3911,34.1803,,34.1805,34.1822,,34.1838,34.1822,0.5206,,0.5263,0.5139,2.2903,,1.5264,0.6079,0.5609,22.637,23.1427,23.0149,99.599,,28.5309,25.7729,0.0324,,,,-99.0,,-99.0,-99.0,26.9846,,26.9862,,0.6342,85.3384,,7.520,,1.9043E+00,,1.0000E-12,,5.3491,5.3489,1.0161,,7.387,32.504,,,,,,,,,,,,
CalCOFI,2007SR,062,64,2007_062u,25-Jul-2020 11:48:30,25-Jul-2020 03:48:30,33.72042,-123.63232,076.7 090.0,076.7,090.0,506.000,510.252,,5.4088,,5.4090,,5.4089,34.1797,,34.1799,34.1813,,34.1829,34.1814,0.5239,,0.5297,0.5174,2.2880,,1.5209,0.6018,0.5596,22.783,23.2951,23.1673,99.497,,28.2688,25.7181,0.0312,,,,-99.0,,-99.0,-99.0,26.9820,,26.9833,,0.6342,85.3384,,7.520,,1.9043E+00,,1.0000E-12,,5.3668,5.3670,1.0161,,7.438,32.484,,,,,,,,,,,,
CalCOFI,2007SR,062,64,2007_062u,25-Jul-2020 11:48:31,25-Jul-2020 03:48:31,33.72042,-123.63232,076.7 090.0,076.7,090.0,505.000,509.243,,5.4161,,5.4164,,5.4163,34.1763,,34.1765,34.1776,,34.1792,34.1779,0.5277,,0.5337,0.5214,2.2863,,1.5169,0.5973,0.5594,22.947,23.4663,23.3384,99.423,,28.0786,25.7085,0.0326,,,,-99.0,,-99.0,-99.0,26.9785,,26.9795,,0.6342,85.3384,,7.520,,1.9043E+00,,1.0000E-12,,5.3742,5.3745,1.0161,,7.493,32.465,,,,,,,,,,,,
CalCOFI,2007SR,062,64,2007_062u,25-Jul-2020 11:48:32,25-Jul-2020 03:48:32,33.72042,-123.63232,076.7 090.0,076.7,090.0,504.000,508.233,,5.4170,,5.4172,,5.4171,34.1742,,34.1744,34.1757,,34.1773,34.1759,0.5283,,0.5343,0.5220,2.2832,,1.5095,0.5892,0.5556,22.975,23.4955,23.3677,99.289,,27.7342,25.5510,0.0322,,,,-99.0,,-99.0,-99.0,26.9767,,26.9779,,0.6348,85.3248,,7.520,,1.9043E+00,,1.0000E-12,,5.3751,5.3753,1.0161,,7.502,32.421,,,,,,,,,,,,
CalCOFI,2007SR,062,64,2007_062u,25-Jul-2020 11:48:32,25-Jul-2020 03:48:32,33.72042,-123.63232,076.7 090.0,076.7,090.0,503.000,507.223,,5.4188,,5.4190,,5.4189,34.1738,,34.1740,34.1753,,34.1769,34.1755,0.5285,,0.5345,0.5222,2.2880,,1.5209,0.6018,0.5620,22.982,23.5028,23.3750,99.498,,28.2713,25.8232,0.0331,,,,-99.0,,-99.0,-99.0,26.9762,,26.9773,,0.6344,85.3334,,7.520,,1.9043E+00,,1.0000E-12,,5.3770,5.3772,1.0161,,7.504,32.491,,,,,,,,,,,,
CalCOFI,2007SR,062,64,2007_062u,25-Jul-2020 11:48:33,25-Jul-2020 03:48:33,33.72042,-123.63232,076.7 090.0,076.7,090.0,502.000,506.214,,5.4235,,5.4237,,5.4236,34.1734,,34.1736,34.1748,,34.1764,34.1750,0.5258,,0.5317,0.5194,2.2828,,1.5085,0.5881,0.5538,22.864,23.3796,23.2518,99.270,,27.6854,25.4686,0.0326,,,,-99.0,,-99.0,-99.0,26.9753,,26.9764,,0.6345,85.3315,,7.520,,1.9043E+00,,1.0000E-12,,5.3818,5.3819,1.0161,,7.467,32.419,,,,,,,,,,,,
CalCOFI,2007SR,062,64,2007_062u,25-Jul-2020 11:48:35,25-Jul-2020 03:48:35,33.72042,-123.63232,076.7 090.0,076.7,090.0,501.000,505.204,,5.4196,,5.4212,,5.4204,34.1738,,34.1740,34.1745,,34.1761,34.1751,0.5404,,0.5470,0.5346,2.2800,,1.5018,0.5807,0.5577,23.502,24.0456,23.9177,99.150,,27.3769,25.6473,0.0318,,,,-99.0,,-99.0,-99.0,26.9761,,26.9764,,0.6345,85.3329,,7.520,,1.9043E+00,,1.0000E-12,,5.3779,5.3795,1.0161,,7.674,32.378,,,,,,,,,,,,
CalCOFI,2007SR,062,64,2007_062u,25-Jul-2020 11:48:37,25-Jul-2020 03:48:37,33.72042,-123.63232,076.7 090.0,076.7,090.0,500.000,504.195,,5.4215,,5.4231,,5.4223,34.1717,,34.1719,34.1727,,34.1743,34.1731,0.5609,,0.5684,0.5560,2.2823,,1.5073,0.5868,0.5714,24.391,24.9737,24.8455,99.251,,27.6365,26.2410,0.0330,,,,-99.0,,-99.0,-99.0,26.9742,,26.9748,,0.6342,85.3386,,7.520,,1.9043E+00,,1.0000E-12,,5.3799,5.3816,1.0161,,7.965,32.412,,,,,,,,,,,,
CalCOFI,2007SR,062,64,2007_062u,25-Jul-2020 11:48:38,25-Jul-2020 03:48:38,33.72042,-123.63232,076.7 090.0,076.7,090.0,499.000,503.185,,5.4315,,5.4298,,5.4307,34.1668,,34.1670,34.1691,,34.1707,34.1689,0.5698,,0.5777,0.5653,2.2815,,1.5054,0.5847,0.5750,24.777,25.3766,25.2484,99.218,,27.5517,26.4001,0.0332,,,,-99.0,,-99.0,-99.0,26.9691,,26.9711,,0.6342,85.3384,,7.520,,1.9043E+00,,1.0000E-12,,5.3900,5.3883,1.0161,,8.093,32.406,,,,,,,,,,,,
CalCOFI,2007SR,062,64,2007_062u,25-Jul-2020 11:48:38,25-Jul-2020 03:48:38,33.72042,-123.63232,076.7 090.0,076.7,090.0,498.000,502.175,,5.4339,,5.4342,,5.4341,34.1651,,34.1653,34.1666,,34.1682,34.1668,0.5733,,0.5813,0.5689,2.2805,,1.5030,0.5821,0.5755,24.930,25.5363,25.4081,99.172,,27.4335,26.4208,0.0323,,,,-99.0,,-99.0,-99.0,26.9674,,26.9686,,0.6342,85.3384,,7.520,,1.9043E+00,,1.0000E-12,,5.3925,5.3928,1.0161,,8.143,32.393,,,,,,,,,,,,
CalCOFI,2007SR,062,64,2007_062u,25-Jul-2020 11:48:39,25-Jul-2020 03:48:39,33.72042,-123.63232,076.7 090.0,076.7,090.0,497.000,501.166,,5.4420,,5.4423,,5.4422,34.1644,,34.1646,34.1658,,34.1674,34.1660,0.5775,,0.5857,0.5733,2.2774,,1.4956,0.5739,0.5736,25.114,25.7284,25.6001,99.037,,27.0865,26.3433,0.0324,,,,-99.0,,-99.0,-99.0,26.9659,,26.9670,,0.6342,85.3384,,7.520,,1.9043E+00,,1.0000E-12,,5.4006,5.4009,1.0161,,8.205,32.355,,,,,,,,,,,,
CalCOFI,2007SR,062,64,2007_062u,25-Jul-2020 11:48:40,25-Jul-2020 03:48:40,33.72042,-123.63232,076.7 090.0,076.7,090.0,496.000,500.156,,5.4484,,5.4485,,5.4485,34.1639,,34.1641,34.1655,,34.1671,34.1656,0.5891,,0.5979,0.5854,2.2746,,1.4890,0.5665,0.5760,25.616,26.2524,26.1240,98.915,,26.7730,26.4485,0.0329,,,,-99.0,,-99.0,-99.0,26.9648,,26.9660,,0.6342,85.3384,,7.521,,1.9043E+00,,1.0000E-12,,5.4071,5.4072,1.0161,,8.370,32.320,,,,,,,,,,,,
CalCOFI,2007SR,062,64,2007_062u,25-Jul-2020 11:48:41,25-Jul-2020 03:48:41,33.72042,-123.63232,076.7 090.0,076.7,090.0,495.000,499.147,,5.4567,,5.4577,,5.4572,34.1634,,34.1636,34.1647,,34.1663,34.1650,0.5998,,0.6090,0.5966,2.2802,,1.5023,0.5813,0.5890,26.084,26.7410,26.6125,99.157,,27.3949,27.0037,0.0320,,,,-99.0,,-99.0,-99.0,26.9633,,26.9643,,0.6342,85.3384,,7.521,,1.9043E+00,,1.0000E-12,,5.4155,5.4164,1.0161,,8.524,32.406,,,,,,,,,,,,
CalCOFI,2007SR,062,64,2007_062u,25-Jul-2020 11:48:42,25-Jul-2020 03:48:42,33.72042,-123.63232,076.7 090.0,076.7,090.0,494.000,498.137,,5.4590,,5.4595,,5.4593,34.1596,,34.1598,34.1606,,34.1622,34.1610,0.6064,,0.6159,0.6035,2.2783,,1.4978,0.5763,0.5899,26.370,27.0395,26.9110,99.078,,27.1919,27.0515,0.0328,,,,-99.0,,-99.0,-99.0,26.9601,,26.9608,,0.6342,85.3384,,7.522,,1.9043E+00,,1.0000E-12,,5.4178,5.4184,1.0161,,8.618,32.380,,,,,,,,,,,,
CalCOFI,2007SR,062,64,2007_062u,25-Jul-2020 11:48:43,25-Jul-2020 03:48:43,33.72042,-123.63232,076.7 090.0,076.7,090.0,493.000,497.127,,5.4646,,5.4642,,5.4644,34.1571,,34.1573,34.1586,,34.1602,34.1588,0.6108,,0.6205,0.6081,2.2740,,1.4875,0.5649,0.5865,26.563,27.2410,27.1124,98.889,,26.7062,26.9093,0.0323,,,,-99.0,,-99.0,-99.0,26.9574,,26.9586,,0.6342,85.3384,,7.524,,1.9043E+00,,1.0000E-12,,5.4235,5.4231,1.0161,,8.682,32.322,,,,,,,,,,,,
CalCOFI,2007SR,062,64,2007_062u,25-Jul-2020 11:48:44,25-Jul-2020 03:48:44,33.72043,-123.63232,076.7 090.0,076.7,090.0,492.000,496.118,,5.4686,,5.4686,,5.4686,34.1553,,34.1555,34.1569,,34.1585,34.1570,0.6169,,0.6269,0.6144,2.2775,,1.4959,0.5742,0.5943,26.828,27.5176,27.3890,99.042,,27.0994,27.2442,0.0321,,,,-99.0,,-99.0,-99.0,26.9555,,26.9568,,0.6342,85.3384,,7.525,,1.9043E+00,,1.0000E-12,,5.4276,5.4276,1.0161,,8.769,32.375,,,,,,,,,,,,
CalCOFI,2007SR,062,64,2007_062u,25-Jul-2020 11:48:45,25-Jul-2020 03:48:45,33.72044,-123.63232,076.7 090.0,076.7,090.0,491.000,495.108,,5.4736,,5.4735,,5.4736,34.1545,,34.1547,34.1562,,34.1578,34.1563,0.6140,,0.6239,0.6114,2.2779,,1.4968,0.5752,0.5933,26.700,27.3840,27.2554,99.063,,27.1534,27.2044,0.0318,,,,-99.0,,-99.0,-99.0,26.9542,,26.9556,,0.6342,85.3384,,7.525,,1.9043E+00,,1.0000E-12,,5.4326,5.4325,1.0161,,8.729,32.385,,,,,,,,,,,,
CalCOFI,2007SR,062,64,2007_062u,25-Jul-2020 11:48:46,25-Jul-2020 03:48:46,33.72042,-123.63232,076.7 090.0,076.7,090.0,490.000,494.099,,5.4808,,5.4812,,5.4810,34.1538,,34.1540,34.1553,,34.1569,34.1555,0.6244,,0.6347,0.6223,2.2714,,1.4813,0.5581,0.5902,27.153,27.8569,27.7282,98.780,,26.4260,27.0771,0.0313,,,,-99.0,,-99.0,-99.0,26.9529,,26.9540,,0.6342,85.3384,,7.525,,1.9043E+00,,1.0000E-12,,5.4399,5.4403,1.0161,,8.878,32.298,,,,,,,,,,,,
CalCOFI,2007SR,062,64,2007_062u,25-Jul-2020 11:48:47,25-Jul-2020 03:48:47,33.72042,-123.63232,076.7 090.0,076.7,090.0,489.000,493.089,,5.4832,,5.4836,,5.4834,34.1538,,34.1540,34.1552,,34.1568,34.1554,0.6251,,0.6355,0.6230,2.2782,,1.4975,0.5760,0.5995,27.187,27.8924,27.7637,99.076,,27.1868,27.4753,0.0323,,,,-99.0,,-99.0,-99.0,26.9525,,26.9536,,0.6343,85.3362,,7.525,,1.9043E+00,,1.0000E-12,,5.4424,5.4428,1.0161,,8.890,32.397,,,,,,,,,,,,
CalCOFI,2007SR,062,64,2007_062u,25-Jul-2020 11:48:48,25-Jul-2020 03:48:48,33.72042,-123.63232,076.7 090.0,076.7,090.0,488.000,492.080,,5.4902,,5.4911,,5.4907,34.1532,,34.1534,34.1545,,34.1561,34.1548,0.6284,,0.6389,0.6265,2.2734,,1.4861,0.5634,0.5950,27.326,28.0375,27.9088,98.865,,26.6445,27.2767,0.0326,,,,-99.0,,-99.0,-99.0,26.9512,,26.9521,,0.6353,85.3142,,7.525,,1.9043E+00,,1.0000E-12,,5.4494,5.4503,1.0161,,8.936,32.333,,,,,,,,,,,,
CalCOFI,2007SR,062,64,2007_062u,25-Jul-2020 11:48:49,25-Jul-2020 03:48:49,33.72044,-123.63232,076.7 090.0,076.7,090.0,487.000,491.070,,5.4996,,5.4991,,5.4994,34.1514,,34.1516,34.1531,,34.1547,34.1532,0.6336,,0.6443,0.6319,2.2751,,1.4901,0.5678,0.5999,27.552,28.2734,28.1446,98.940,,26.8372,27.4909,0.0320,,,,-99.0,,-99.0,-99.0,26.9487,,26.9501,,0.6342,85.3384,,7.525,,1.9043E+00,,1.0000E-12,,5.4589,5.4584,1.0161,,9.012,32.364,,,,,,,,,,,,
CalCOFI,2007SR,062,64,2007_062u,25-Jul-2020 11:48:50,25-Jul-2020 03:48:50,33.72044,-123.63232,076.7 090.0,076.7,090.0,486.000,490.061,,5.5048,,5.5053,,5.5051,34.1509,,34.1511,34.1523,,34.1539,34.1525,0.6309,,0.6415,0.6291,2.2733,,1.4858,0.5631,0.5961,27.434,28.1503,28.0215,98.861,,26.6342,27.3279,0.0324,,,,-99.0,,-99.0,-99.0,26.9476,,26.9486,,0.6342,85.3384,,7.525,,1.9043E+00,,1.0000E-12,,5.4642,5.4647,1.0161,,8.975,32.342,,,,,,,,,,,,
CalCOFI,2007SR,062,64,2007_062u,25-Jul-2020 11:48:51,25-Jul-2020 03:48:51,33.72044,-123.63232,076.7 090.0,076.7,090.0,485.000,489.051,,5.5148,,5.5151,,5.5150,34.1507,,34.1509,34.1523,,34.1539,34.1524,0.6269,,0.6373,0.6249,2.2724,,1.4837,0.5607,0.5928,27.264,27.9728,27.8441,98.823,,26.5365,27.1903,0.0327,,,,-99.0,,-99.0,-99.0,26.9462,,26.9475,,0.6342,85.3384,,7.525,,1.9043E+00,,1.0000E-12,,5.4742,5.4745,1.0161,,8.921,32.337,,,,,,,,,,,,
CalCOFI,2007SR,062,64,2007_062u,25-Jul-2020 11:48:52,25-Jul-2020 03:48:52,33.72044,-123.63232,076.7 090.0,076.7,090.0,484.000,488.041,,5.5288,,5.5288,,5.5288,34.1517,,34.1519,34.1532,,34.1548,34.1534,0.6067,,0.6162,0.6038,2.2713,,1.4811,0.5578,0.5808,26.384,27.0542,26.9256,98.774,,26.4106,26.6681,0.0326,,,,-99.0,,-99.0,-99.0,26.9453,,26.9465,,0.6342,85.3384,,7.526,,1.9043E+00,,1.0000E-12,,5.4883,5.4882,1.0161,,8.636,32.332,,,,,,,,,,,,
CalCOFI,2007SR,062,64,2007_062u,25-Jul-2020 11:48:53,25-Jul-2020 03:48:53,33.72044,-123.63232,076.7 090.0,076.7,090.0,483.000,487.032,,5.5381,,5.5397,,5.5389,34.1538,,34.1540,34.1564,,34.1580,34.1560,0.5995,,0.6087,0.5963,2.2703,,1.4787,0.5552,0.5758,26.073,26.7295,26.6010,98.730,,26.2975,26.4493,0.0314,,,,-99.0,,-99.0,-99.0,26.9459,,26.9478,,0.6342,85.3384,,7.526,,1.9043E+00,,1.0000E-12,,5.4976,5.4992,1.0161,,8.536,32.326,,,,,,,,,,,,
CalCOFI,2007SR,062,64,2007_062u,25-Jul-2020 11:48:54,25-Jul-2020 03:48:54,33.72044,-123.63232,076.7 090.0,076.7,090.0,482.000,486.022,,5.6055,,5.6089,,5.6072,34.1610,,34.1612,34.1632,,34.1648,34.1630,0.5941,,0.6031,0.5907,2.2657,,1.4677,0.5431,0.5669,25.835,26.4811,26.3526,98.529,,25.7809,26.0668,0.0316,,,,-99.0,,-99.0,-99.0,26.9435,,26.9448,,0.6352,85.3173,,7.527,,1.9043E+00,,1.0000E-12,,5.5648,5.5682,1.0161,,8.472,32.315,,,,,,,,,,,,
CalCOFI,2007SR,062,64,2007_062u,25-Jul-2020 11:48:55,25-Jul-2020 03:48:55,33.72044,-123.63232,076.7 090.0,076.7,090.0,481.000,485.013,,5.6305,,5.6305,,5.6305,34.1610,,34.1612,34.1625,,34.1641,34.1627,0.5897,,0.5985,0.5861,2.2678,,1.4727,0.5486,0.5674,25.645,26.2827,26.1543,98.621,,26.0174,26.0859,0.0324,,,,-99.0,,-99.0,-99.0,26.9405,,26.9417,,0.6353,85.3148,,7.527,,1.9043E+00,,1.0000E-12,,5.5899,5.5898,1.0161,,8.415,32.361,,,,,,,,,,,,
CalCOFI,2007SR,062,64,2007_062u,25-Jul-2020 11:48:56,25-Jul-2020 03:48:56,33.72044,-123.63232,076.7 090.0,076.7,090.0,480.000,484.003,,5.6323,,5.6328,,5.6326,34.1609,,34.1611,34.1624,,34.1640,34.1626,0.5920,,0.6009,0.5885,2.2684,,1.4742,0.5502,0.5694,25.746,26.3881,26.2597,98.649,,26.0894,26.1746,0.0326,,,,-99.0,,-99.0,-99.0,26.9402,,26.9413,,0.6353,85.3148,,7.527,,1.9043E+00,,1.0000E-12,,5.5917,5.5922,1.0161,,8.448,32.372,,,,,,,,,,,,
CalCOFI,2007SR,062,64,2007_062u,25-Jul-2020 11:48:57,25-Jul-2020 03:48:57,33.72044,-123.63232,076.7 090.0,076.7,090.0,479.000,482.994,,5.6347,,5.6351,,5.6349,34.1610,,34.1612,34.1624,,34.1640,34.1626,0.5984,,0.6076,0.5951,2.2633,,1.4620,0.5368,0.5660,26.025,26.6794,26.5509,98.427,,25.5188,26.0349,0.0323,,,,-99.0,,-99.0,-99.0,26.9399,,26.9410,,0.6353,85.3148,,7.528,,1.9043E+00,,1.0000E-12,,5.5941,5.5946,1.0161,,8.540,32.301,,,,,,,,,,,,
CalCOFI,2007SR,062,64,2007_062u,25-Jul-2020 11:48:58,25-Jul-2020 03:48:58,33.72044,-123.63232,076.7 090.0,076.7,090.0,478.000,481.984,,5.6353,,5.6354,,5.6354,34.1604,,34.1606,34.1617,,34.1633,34.1620,0.5989,,0.6081,0.5957,2.2676,,1.4722,0.5481,0.5719,26.046,26.7013,26.5728,98.615,,26.0020,26.2874,0.0330,,,,-99.0,,-99.0,-99.0,26.9394,,26.9403,,0.6354,85.3137,,7.527,,1.9043E+00,,1.0000E-12,,5.5949,5.5950,1.0161,,8.547,32.362,,,,,,,,,,,,
CalCOFI,2007SR,062,64,2007_062u,25-Jul-2020 11:48:59,25-Jul-2020 03:48:59,33.72044,-123.63232,076.7 090.0,076.7,090.0,477.000,480.975,,5.6313,,5.6316,,5.6315,34.1590,,34.1592,34.1602,,34.1618,34.1605,0.5943,,0.6033,0.5909,2.2674,,1.4718,0.5476,0.5693,25.845,26.4915,26.3631,98.604,,25.9737,26.1684,0.0323,,,,-99.0,,-99.0,-99.0,26.9387,,26.9397,,0.6356,85.3094,,7.527,,1.9043E+00,,1.0000E-12,,5.5910,5.5913,1.0161,,8.481,32.356,,,,,,,,,,,,
CalCOFI,2007SR,062,64,2007_062u,25-Jul-2020 11:49:00,25-Jul-2020 03:49:00,33.72044,-123.63232,076.7 090.0,076.7,090.0,476.000,479.965,,5.6366,,5.6375,,5.6371,34.1599,,34.1601,34.1617,,34.1633,34.1617,0.5909,,0.5997,0.5873,2.2713,,1.4811,0.5578,0.5726,25.698,26.3380,26.2096,98.774,,26.4106,26.3101,0.0326,,,,-99.0,,-99.0,-99.0,26.9388,,26.9401,,0.6353,85.3146,,7.528,,1.9043E+00,,1.0000E-12,,5.5963,5.5972,1.0161,,8.433,32.416,,,,,,,,,,,,
CalCOFI,2007SR,062,64,2007_062u,25-Jul-2020 11:49:01,25-Jul-2020 03:49:01,33.72045,-123.63232,076.7 090.0,076.7,090.0,475.000,478.956,,5.6593,,5.6606,,5.6600,34.1618,,34.1620,34.1637,,34.1653,34.1637,0.5948,,0.6038,0.5914,2.2659,,1.4682,0.5436,0.5675,25.865,26.5124,26.3839,98.539,,25.8067,26.0953,0.0326,,,,-99.0,,-99.0,-99.0,26.9375,,26.9388,,0.6355,85.3108,,7.529,,1.9043E+00,,1.0000E-12,,5.6190,5.6203,1.0161,,8.493,32.357,,,,,,,,,,,,
CalCOFI,2007SR,062,64,2007_062u,25-Jul-2020 11:49:03,25-Jul-2020 03:49:03,33.72044,-123.63232,076.7 090.0,076.7,090.0,474.000,477.946,,5.6651,,5.6630,,5.6641,34.1606,,34.1608,34.1622,,34.1638,34.1623,0.5975,,0.6066,0.5942,2.2655,,1.4672,0.5425,0.5684,25.983,26.6356,26.5071,98.524,,25.7681,26.1376,0.0327,,,,-99.0,,-99.0,-99.0,26.9358,,26.9374,,0.6353,85.3149,,7.529,,1.9043E+00,,1.0000E-12,,5.6249,5.6228,1.0161,,8.533,32.354,,,,,,,,,,,,
CalCOFI,2007SR,062,64,2007_062u,25-Jul-2020 11:49:04,25-Jul-2020 03:49:04,33.72044,-123.63232,076.7 090.0,076.7,090.0,473.000,476.937,,5.6744,,5.6732,,5.6738,34.1592,,34.1594,34.1610,,34.1626,34.1610,0.6036,,0.6130,0.6006,2.2646,,1.4651,0.5402,0.5704,26.252,26.9164,26.7878,98.485,,25.6679,26.2279,0.0328,,,,-99.0,,-99.0,-99.0,26.9336,,26.9352,,0.6353,85.3148,,7.529,,1.9043E+00,,1.0000E-12,,5.6343,5.6331,1.0161,,8.623,32.348,,,,,,,,,,,,
CalCOFI,2007SR,062,64,2007_062u,25-Jul-2020 11:49:04,25-Jul-2020 03:49:04,33.72044,-123.63232,076.7 090.0,076.7,090.0,472.000,475.927,,5.6886,,5.6885,,5.6886,34.1599,,34.1601,34.1613,,34.1629,34.1615,0.6032,,0.6126,0.6002,2.2634,,1.4622,0.5370,0.5686,26.230,26.8934,26.7649,98.432,,25.5317,26.1483,0.0324,,,,-99.0,,-99.0,-99.0,26.9324,,26.9336,,0.6353,85.3148,,7.529,,1.9043E+00,,1.0000E-12,,5.6485,5.6484,1.0161,,8.619,32.342,,,,,,,,,,,,
CalCOFI,2007SR,062,64,2007_062u,25-Jul-2020 11:49:05,25-Jul-2020 03:49:05,33.72045,-123.63232,076.7 090.0,076.7,090.0,471.000,474.918,,5.6898,,5.6899,,5.6899,34.1596,,34.1598,34.1609,,34.1625,34.1612,0.6092,,0.6189,0.6064,2.2630,,1.4613,0.5360,0.5712,26.495,27.1700,27.0415,98.416,,25.4905,26.2660,0.0325,,,,-99.0,,-99.0,-99.0,26.9320,,26.9331,,0.6353,85.3148,,7.529,,1.9043E+00,,1.0000E-12,,5.6498,5.6499,1.0161,,8.706,32.338,,,,,,,,,,,,
CalCOFI,2007SR,062,64,2007_062u,25-Jul-2020 11:49:06,25-Jul-2020 03:49:06,33.72046,-123.63232,076.7 090.0,076.7,090.0,470.000,473.908,,5.6923,,5.6929,,5.6926,34.1585,,34.1587,34.1596,,34.1612,34.1600,0.6185,,0.6286,0.6161,2.2626,,1.4603,0.5349,0.5755,26.897,27.5897,27.4610,98.396,,25.4391,26.4501,0.0330,,,,-99.0,,-99.0,-99.0,26.9308,,26.9316,,0.6353,85.3148,,7.529,,1.9043E+00,,1.0000E-12,,5.6523,5.6530,1.0161,,8.838,32.334,,,,,,,,,,,,
CalCOFI,2007SR,062,64,2007_062u,25-Jul-2020 11:49:07,25-Jul-2020 03:49:07,33.72046,-123.63232,076.7 090.0,076.7,090.0,469.000,472.899,,5.7004,,5.7012,,5.7008,34.1569,,34.1571,34.1582,,34.1598,34.1585,0.6307,,0.6413,0.6289,2.2618,,1.4584,0.5328,0.5809,27.428,28.1440,28.0152,98.363,,25.3543,26.6848,0.0323,,,,-99.0,,-99.0,-99.0,26.9286,,26.9295,,0.6353,85.3148,,7.529,,1.9043E+00,,1.0000E-12,,5.6606,5.6613,1.0161,,9.014,32.329,,,,,,,,,,,,
CalCOFI,2007SR,062,64,2007_062u,25-Jul-2020 11:49:08,25-Jul-2020 03:49:08,33.72046,-123.63232,076.7 090.0,076.7,090.0,468.000,471.889,,5.6989,,5.6984,,5.6987,34.1539,,34.1541,34.1548,,34.1564,34.1553,0.6395,,0.6505,0.6380,2.2617,,1.4582,0.5325,0.5853,27.812,28.5448,28.4160,98.359,,25.3440,26.8800,0.0326,,,,-99.0,,-99.0,-99.0,26.9264,,26.9272,,0.6353,85.3148,,7.529,,1.9043E+00,,1.0000E-12,,5.6591,5.6586,1.0161,,9.140,32.325,,,,,,,,,,,,
CalCOFI,2007SR,062,64,2007_062u,25-Jul-2020 11:49:09,25-Jul-2020 03:49:09,33.72046,-123.63232,076.7 090.0,076.7,090.0,467.000,470.880,,5.6967,,5.6969,,5.6968,34.1517,,34.1519,34.1532,,34.1548,34.1534,0.6404,,0.6515,0.6390,2.2615,,1.4577,0.5320,0.5855,27.850,28.5845,28.4557,98.352,,25.3261,26.8909,0.0316,,,,-99.0,,-99.0,-99.0,26.9249,,26.9261,,0.6356,85.3093,,7.529,,1.9043E+00,,1.0000E-12,,5.6570,5.6572,1.0161,,9.152,32.321,,,,,,,,,,,,
CalCOFI,2007SR,062,64,2007_062u,25-Jul-2020 11:49:10,25-Jul-2020 03:49:10,33.72046,-123.63232,076.7 090.0,076.7,090.0,466.000,469.871,,5.7193,,5.7221,,5.7207,34.1517,,34.1519,34.1534,,34.1550,34.1535,0.6435,,0.6547,0.6422,2.2612,,1.4570,0.5312,0.5867,27.983,28.7234,28.5945,98.338,,25.2901,26.9423,0.0321,,,,-99.0,,-99.0,-99.0,26.9221,,26.9231,,0.6353,85.3147,,7.529,,1.9043E+00,,1.0000E-12,,5.6796,5.6824,1.0161,,9.201,32.335,,,,,,,,,,,,
CalCOFI,2007SR,062,64,2007_062u,25-Jul-2020 11:49:11,25-Jul-2020 03:49:11,33.72046,-123.63232,076.7 090.0,076.7,090.0,465.000,468.861,,5.7360,,5.7370,,5.7365,34.1506,,34.1508,34.1519,,34.1535,34.1522,0.6455,,0.6568,0.6443,2.2607,,1.4558,0.5299,0.5871,28.074,28.8183,28.6894,98.317,,25.2361,26.9628,0.0321,,,,-99.0,,-99.0,-99.0,26.9192,,26.9201,,0.6353,85.3148,,7.529,,1.9043E+00,,1.0000E-12,,5.6964,5.6974,1.0161,,9.234,32.339,,,,,,,,,,,,